Погода в Валке

Латвия     57°46′30″N   26°01′14″E
темп.,
°C
ветер,
м/с
пор.,
м/с
влажн.,
%
обл.,
%
осадки,
мм/ч
давл.,
гПа
погр.,
м
2 июля, сб
сб200:00+18юв2576100 0.0 102088
03:00+17юв257837 0.0 102090
06:00+17ююв267968 0.0 1020122
09:00+25ююв36515 0.0 1020474
12:00+29ююв453497 0.0 10191826
15:00+30ю453292 0.0 10192071
18:00+30ю353798 0.0 10182334
21:00+24юз2560100 0.0 1017172
3 июля, вс
вс300:00+18з2793100 0.0 1018229
03:00+18зсз3798100 0.1 1019331
06:00+18зсз2594100 0.0 1019352
09:00+18сз2389100 0.1 1020315
12:00+20сз2278100 0.0 1020620
15:00+25ссв125537 0.0 10191061
18:00+25зсз0164100 0.2 1018585
21:00+20зсз267593 0.6 1018158
4 июля, пн
пн400:00+17з22782 0.0 101835
03:00+15всв11855 0.0 101811
06:00+16юв118643 0.0 101751
09:00+19юв2279100 0.0 1017226
12:00+22всв116814 0.1 1016286
15:00+24ю127430 3.2 1014805
18:00+24з1277100 3.1 1014592
21:00+20зюз118844 4.1 101313
5 июля, вт
вт500:00+17сз229393 0.0 101324
03:00+14зсз11900 0.0 101313
06:00+14зюз23890 0.0 101360
09:00+21зюз35609 0.0 1013672
12:00+24зюз684076 0.3 10131733
15:00+24зюз6838100 0.3 10132383
18:00+22з4744100 0.0 10131713
21:00+18зсз2560100 0.0 1014285
6 июля, ср
ср600:00+13з22860 0.0 101522
03:00+11юз27971 0.0 1015150
06:00+12ююз38925 0.0 1015266
09:00+18юз46625 0.0 1014881
12:00+22зюз574479 0.0 10132156
15:00+20зюз465062 0.1 10121480
18:00+20з3553100 0.1 1012752
21:00+15з248586 0.7 101299